This is the latest recevied weather packets stored in our database for station/object SP1BMW-13. If no packets are shown the sender has not sent any weather packets the latest 10 day(s).
| Time | Temp. | Humidity | Pressure | Rain* | Wind** | Luminosity | Snow |
|---|---|---|---|---|---|---|---|
| 1787831776 | 26.11° C | 41% | 1018.9 hPa | 0 mm | 0.89 m/s, 32° | 625 W/m² | - |
| 1787831716 | 26.11° C | 41% | 1018.9 hPa | 0 mm | 0.89 m/s, 149° | 625 W/m² | - |
| 1787831656 | 26.11° C | 38% | 1019 hPa | 0 mm | 0.45 m/s, 39° | 625 W/m² | - |
| 1787831596 | 26.11° C | 39% | 1018.9 hPa | 0 mm | 1.79 m/s, 44° | 625 W/m² | - |
| 1787831536 | 26.11° C | 40% | 1019 hPa | 0 mm | 1.34 m/s, 32° | 628 W/m² | - |
| 1787831476 | 26.11° C | 39% | 1019 hPa | 0 mm | 1.79 m/s, 51° | 629 W/m² | - |
| 1787831416 | 26.11° C | 38% | 1018.8 hPa | 0 mm | 2.24 m/s, 68° | 635 W/m² | - |
| 1787831356 | 26.11° C | 39% | 1018.9 hPa | 0 mm | 0.89 m/s, 40° | 634 W/m² | - |
| 1787831296 | 26.11° C | 36% | 1018.9 hPa | 0 mm | 1.79 m/s, 10° | 635 W/m² | - |
| 1787831236 | 26.11° C | 38% | 1018.9 hPa | 0 mm | 0.89 m/s, 51° | 636 W/m² | - |
| 1787831175 | 26.11° C | 38% | 1018.9 hPa | 0 mm | 0.45 m/s, 63° | 636 W/m² | - |
| 1787831116 | 25.56° C | 37% | 1019.1 hPa | 0 mm | 0.89 m/s, 45° | 636 W/m² | - |
| 1787831055 | 25.56° C | 38% | 1018.9 hPa | 0 mm | 0.89 m/s, 219° | 635 W/m² | - |
| 1787830995 | 25.56° C | 37% | 1019.1 hPa | 0 mm | 0.89 m/s, 343° | 640 W/m² | - |
| 1787830936 | 25.56° C | 39% | 1019 hPa | 0 mm | 1.34 m/s, 114° | 642 W/m² | - |
| 1787830876 | 25.56° C | 37% | 1019.1 hPa | 0 mm | 0.89 m/s, 177° | 640 W/m² | - |
| 1787830816 | 25.56° C | 38% | 1019.1 hPa | 0 mm | 1.79 m/s, 47° | 642 W/m² | - |
| 1787830755 | 25.56° C | 37% | 1019.1 hPa | 0 mm | 2.24 m/s, 57° | 641 W/m² | - |
| 1787830695 | 25.56° C | 37% | 1019.3 hPa | 0 mm | 1.79 m/s, 38° | 640 W/m² | - |
| 1787830636 | 25.56° C | 39% | 1019 hPa | 0 mm | 0.45 m/s, 236° | 641 W/m² | - |
| 1787830575 | 25.56° C | 40% | 1019.1 hPa | 0 mm | 1.34 m/s, 66° | 644 W/m² | - |
| 1787830516 | 25.56° C | 39% | 1019.2 hPa | 0 mm | 1.34 m/s, 31° | 645 W/m² | - |
| 1787830455 | 25.56° C | 41% | 1019.2 hPa | 0 mm | 0.89 m/s, 50° | 645 W/m² | - |
| 1787830396 | 25.56° C | 39% | 1019.2 hPa | 0 mm | 1.34 m/s, 22° | 645 W/m² | - |
| 1787830335 | 25.56° C | 39% | 1019.1 hPa | 0 mm | 1.34 m/s, 193° | 644 W/m² | - |
* Rain latest hour (hover to see other rain measurements)
** Current wind speed in m/s (hover to see current wind gust speed)